Regional Weather Roundup
Issued by NWS

Home | Current Version | Previous Version | Graphics & Text | Print | Product List | Glossary On
Versions: 1 2 3 4 5 6 7 8 9 10 11 12 13 14 15 16 17 18 19 20 21 22 23 24 25 26 27 28 29 30 31 32 33 34 35 36 37 38 39 40 41 42 43 44 45 46 47 48 49 50
000
ASUS44 KMEG 200710
RWRTN
TENNESSEE HOURLY STATE WEATHER ROUNDUP
NATIONAL WEATHER SERVICE MEMPHIS TN
200 AM CDT WED SEP 20 2017

TNZ002-004-019-021-049-052-054-088>092-200800-
WEST TENNESSEE

CITY           SKY/WX    TMP DP  RH WIND       PRES   REMARKS
MEMPHIS INTL   CLEAR     77  72  84 S7        29.93S
NWS MEMPHIS      N/A     76 N/A N/A MISG        N/A
JACKSON        CLEAR     74  72  93 S6        29.95S
DYERSBURG      CLEAR     74  70  87 S3        29.93S
SOMERVILLE     CLEAR     73  72  94 CALM      29.93S
COVINGTON      CLEAR     73  70  88 CALM      29.93R
BOLIVAR        CLEAR     70  70 100 CALM      29.94F
PARIS          CLEAR     72  70  94 CALM      29.94S
HUNTINGDON     CLEAR     72  72 100 S3        29.94S
LEXINGTON      CLEAR     72  70  94 CALM      29.96S
SELMER         CLEAR     72  68  88 S5        29.96S
SAVANNAH       PTCLDY    72  70  94 S6        29.96S
$$

TNZ008-025-027-028-033-062-065-066-200800-
NORTH MIDDLE TENNESSEE

CITY           SKY/WX    TMP DP  RH WIND       PRES   REMARKS
NASHVILLE      CLEAR     68  65  90 CALM      29.98S
PORTLAND       MOCLDY    68  66  94 S5        29.97S
CLARKSVILLE    CLEAR     68  66  93 SE3       29.96S
SMYRNA           N/A    N/A N/A N/A MISG        N/A
COOKEVILLE     FOG       59  59 100 CALM      30.00S VSB 1/4
GALLATIN       FOG       66  64  94 CALM      30.01R VSB 1/2
CROSSVILLE     CLEAR     60  60 100 CALM      30.05F FOG
$$

TNZ061-075-076-078-094-096-097-200800-
SOUTH MIDDLE TENNESSEE

CITY           SKY/WX    TMP DP  RH WIND       PRES   REMARKS
TULLAHOMA      CLEAR     63  63 100 CALM      30.02S
WINCHESTER     CLEAR     64  64 100 CALM        N/A
MCMINNVILLE    CLOUDY    63  63 100 CALM      30.01S VSB 1/4
COLUMBIA       PTCLDY    66  66 100 CALM      29.96F
SHELBYVILLE    CLEAR     64  64 100 CALM      30.00S
$$

TNZ017-018-042-046-047-200800-
NORTHEAST TENNESSEE

CITY           SKY/WX    TMP DP  RH WIND       PRES   REMARKS
TRI CITIES     PTCLDY    63  62  97 N3        30.04S
ELIZABETHTON   CLOUDY    63  61  94 CALM      30.05F
$$

TNZ012-013-036-069-073-074-200800-
CENTRAL EAST TENNESSEE

CITY           SKY/WX    TMP DP  RH WIND       PRES   REMARKS
KNOXVILLE      PTCLDY    63  61  93 SW3       30.01S
OAK RIDGE      CLOUDY    64  63  96 CALM      30.03S FOG
DOWNTOWN KNOXV   N/A     63  63 100 CALM      30.01S FOG
GATLINBURG     CLEAR     61  59  94 CALM      30.01F
MORRISTOWN     CLEAR     63  61  94 CALM      30.01F
JACKSBORO      FOG       63  63 100 CALM      30.05S VSB 0
$$

TNZ083-085-099-200800-
SOUTHEAST TENNESSEE

CITY           SKY/WX    TMP DP  RH WIND       PRES   REMARKS
CHATTANOOGA    MOCLDY    67  65  93 CALM      30.02F
DAYTON         FOG       64  64 100 CALM      30.01F VSB 1/4
$$

SKY/WX REPORTED AS FAIR MEANS FEW OR NO CLOUDS BELOW
12 THOUSAND FEET.





USA.gov is the U.S. government's official web portal to all federal, state and local government web resources and services.